User: anonymous   Login
Location: Unspecified
(0.0000°N, 0.0000°E)
Time: 17:03:08
(UTC+00:00)
Language:

TSUBAME - Orbit

View from above orbital plane
View from above orbital plane
View from above satellite
View from above satellite

Ground track
Ground track

The orbit data is extracted from the following two-line orbital elements,

1 40302U 14070E   17265.21067396  .00001249  00000-0  66064-4 0  9998
2 40302  97.3691 334.5854 0040794 142.6246 302.1092 15.16570327159051
Epoch (UTC): 22 September 2017 05:03:22
Eccentricity: 0.0040794
inclination: 97.3691°
perigee height: 488 km
apogee height: 544 km
right ascension of ascending node: 334.5854°
argument of perigee: 142.6246°
revolutions per day: 15.16570327
mean anomaly at epoch: 302.1092°
orbit number at epoch: 15905

The dashed part of the orbit path shows where the satellite is in the earth's shadow,  

DLR